Location: Newark
(9.4667°S, 159.8167°E)
Time: 20:03:02
(UTC+00:00)

deb Explorer IX - All Passes

Search period start: 12 November 2019 00:00
Search period end: 22 November 2019 00:00
Orbit: 546 x 1105 km, 38.8° (Epoch: 12 November)

Date Brightness Start Highest point End Pass type
(mag) Time Alt. Az. Time Alt. Az. Time Alt. Az.
12 Nov - 01:54:58 10° NW 01:59:34 59° NE 02:04:58 10° ESE daylight
12 Nov - 03:42:49 10° W 03:46:55 23° SSW 03:51:32 10° SSE daylight
12 Nov - 10:59:33 10° SSW 11:05:42 28° SSE 11:11:34 10° E visible
12 Nov - 12:46:14 10° SW 12:53:28 71° NW 12:59:58 10° NE night (unlit)
12 Nov - 14:38:02 10° WNW 14:40:24 12° NW 14:42:42 10° NNW night (unlit)
13 Nov - 01:33:11 10° NW 01:37:40 60° NE 01:42:54 10° ESE daylight
13 Nov - 03:21:08 10° W 03:25:00 21° SSW 03:29:19 10° SSE daylight
13 Nov - 10:37:25 10° SSW 10:43:38 29° SE 10:49:39 10° E visible
13 Nov - 12:24:07 10° SW 12:31:23 69° NW 12:38:01 10° NE night (unlit)
13 Nov - 14:15:58 10° WNW 14:18:24 12° NW 14:20:45 10° NNW night (unlit)
14 Nov - 01:11:24 10° NW 01:15:47 62° NE 01:20:51 10° ESE daylight
14 Nov - 02:59:29 10° WSW 03:03:06 20° SSW 03:07:07 10° SSE daylight
14 Nov - 10:15:18 10° SSW 10:21:33 30° SE 10:27:42 10° E visible
14 Nov - 12:02:00 10° WSW 12:09:18 68° NW 12:16:04 10° NE visible
14 Nov - 13:53:54 10° WNW 13:56:23 12° NW 13:58:47 10° NNW night (unlit)
15 Nov - 00:49:37 10° NW 00:53:54 64° NE 00:58:50 10° ESE daylight
15 Nov - 02:37:51 10° WSW 02:41:12 18° SSW 02:44:54 10° SSE daylight
15 Nov - 09:53:12 10° SSW 09:59:29 30° SE 10:05:43 10° E visible
15 Nov - 11:39:54 10° WSW 11:47:12 66° NW 11:54:04 10° NE visible
15 Nov - 13:31:52 10° WNW 13:34:21 12° NW 13:36:46 10° NNW night (unlit)
16 Nov - 00:27:49 10° NW 00:32:02 67° NE 00:36:49 10° ESE daylight
16 Nov - 02:16:14 10° WSW 02:19:19 17° SSW 02:22:41 10° S daylight
16 Nov - 09:31:07 10° SSW 09:37:24 31° SE 09:43:43 10° E visible
16 Nov - 11:17:49 10° WSW 11:25:06 65° NW 11:32:04 10° NE visible
16 Nov - 13:09:50 10° WNW 13:12:18 12° NW 13:14:43 10° NNW night (unlit)
17 Nov - 00:06:01 10° NW 00:10:10 69° NE 00:14:50 10° SE daylight
17 Nov - 01:54:37 10° WSW 01:57:26 16° SSW 02:00:28 10° S daylight
17 Nov - 09:09:03 10° SSW 09:15:19 32° SE 09:21:41 10° E visible
17 Nov - 10:55:44 10° WSW 11:02:59 63° NW 11:10:02 10° NE visible
17 Nov - 12:47:50 10° WNW 12:50:15 12° NW 12:52:37 10° NNW night (unlit)
17 Nov - 23:44:13 10° NW 23:48:20 73° NE 23:52:51 10° SE daylight
18 Nov - 01:33:02 10° WSW 01:35:34 14° SSW 01:38:14 10° S daylight
18 Nov - 08:47:01 10° SSW 08:53:14 32° SE 08:59:39 10° E visible
18 Nov - 10:33:41 10° WSW 10:40:52 62° NW 10:47:58 10° NE visible
18 Nov - 12:25:53 10° WNW 12:28:12 12° NW 12:30:29 10° NNW night (unlit)
18 Nov - 23:22:23 10° NW 23:26:28 76° NE 23:30:53 10° SE daylight
19 Nov - 01:11:29 10° WSW 01:13:41 13° SSW 01:16:00 10° S daylight
19 Nov - 08:25:00 10° SSW 08:31:09 33° SE 08:37:35 10° E visible
19 Nov - 10:11:38 10° WSW 10:18:45 60° NW 10:25:54 10° NE visible
19 Nov - 12:03:59 10° WNW 12:06:08 11° NW 12:08:17 10° NNW night (unlit)
19 Nov - 23:00:34 10° NW 23:04:38 79° NE 23:08:57 10° SE daylight
20 Nov - 00:49:58 10° SW 00:51:49 12° SSW 00:53:45 10° S daylight
20 Nov - 08:02:59 10° SSW 08:09:03 33° SE 08:15:30 10° E visible
20 Nov - 09:49:36 10° WSW 09:56:38 59° NW 10:03:47 10° NE visible
20 Nov - 11:42:08 10° WNW 11:44:04 11° NW 11:46:01 10° NNW visible
20 Nov - 22:38:42 10° NW 22:42:47 83° NE 22:47:02 10° SE daylight
21 Nov - 00:28:29 10° SW 00:29:57 11° SSW 00:31:28 10° S daylight
21 Nov - 07:41:00 10° SSW 07:46:58 33° SE 07:53:24 10° E visible
21 Nov - 09:27:36 10° WSW 09:34:30 57° NW 09:41:41 10° NE visible
21 Nov - 11:20:22 10° NW 11:22:00 11° NW 11:23:39 10° NNW visible
21 Nov - 22:16:51 10° NW 22:20:56 87° NE 22:25:07 10° SE daylight
